Skip Page Navigation
NASA JPL Caltech
NASA Logo - Jet Propulsion Laboratory + View the NASA Portal
+ Near-Earth Object (NEO) Program
Search JPL
JPL Home Earth Solar System Stars & Galaxies Technology
JPL Solar System Dynamics
BODIES ORBITS EPHEMERIDES TOOLS PHYSICAL DATA DISCOVERY FAQ SITE MAP
JPL Small-Body Database Browser
Search: [ help ]  
140158 (2001 SX169)
Classification: Apollo [NEO, PHA]          SPK-ID: 2140158
Ephemeris | Orbit Diagram | Orbital Elements | Physical Parameters | Discovery Circumstances | Close-Approach Data ]

[ hide orbit diagram ]
Orbit Diagram
Note: Make sure you have Java enabled on your browser to see the applet. This applet is provided as a 3D orbit visualization tool. The applet was implemented using 2-body methods, and hence should not be used for determining accurate long-term trajectories (over several years or decades) or planetary encounter circumstances. For accurate long-term ephemerides, please instead use our Horizons system.
Orbit Viewer

Additional Notes: the orbits shown in the applet are color coded. The planets are white lines, and the asteroid/comet is a blue line. The bright white line indicates the portion of the orbit that is above the ecliptic plane, and the darker portion is below the ecliptic plane. Likewise for the asteroid/comet orbit, the light blue indicates the portion above the ecliptic plane, and the dark blue the portion below the ecliptic plane.

Orbit Viewer applet originally written and kindly provided by Osamu Ajiki (AstroArts), and further modified by Ron Baalke (JPL).


Orbital Elements at Epoch 2456400.5 (2013-Apr-18.0) TDB
Reference: JPL 55 (heliocentric ecliptic J2000)
 Element Value Uncertainty (1-sigma)   Units 
e .4607835651734064 1.0708e-07  
a 1.347306258521327 1.6111e-08 AU
q .7264896773394265 1.4208e-07 AU
i 2.51304967846094 4.8138e-06 deg
node 126.9105191220568 0.00023941 deg
peri 42.62022449111394 0.00023986 deg
M 327.1292280382787 3.2636e-05 deg
tp 2456452.656125342935
(2013-Jun-09.15612534)
5.2557e-05 JED
period 571.2127827518525
1.56
1.0246e-05
2.805e-08
d
yr
n .6302379968908924 1.1305e-08 deg/d
Q 1.968122839703227 2.3535e-08 AU
  Orbit Determination Parameters
   # obs. used (total)      256  
   data-arc span      4028 days (11.03 yr)  
   first obs. used      2001-09-07  
   last obs. used      2012-09-17  
   planetary ephem.      DE405  
   SB-pert. ephem.      SB405-CPV-2  
   condition code      0  
   fit RMS      .59858  
   data source      ORB  
   producer      Otto Matic  
   solution date      2013-Apr-29 15:38:59  

Additional Information
 Earth MOID = .0261599 AU 
 T_jup = 4.764 
[ show covariance matrix ]

Ephemeris | Orbit Diagram | Orbital Elements | Physical Parameters | Discovery Circumstances | Close-Approach Data ]

Physical Parameter Table
Parameter Symbol Value Units Sigma Reference Notes
absolute magnitude H 18.182 mag .703 55 autocmod 2.5c

140158 (2001 SX169)          Discovered 2001-Sep-19 by LINEAR at Socorro (704)
Reference: 20061205/Numbers.arcLast Updated: 2006-12-13

[ show close-approach data ]
Ephemeris | Orbit Diagram | Orbital Elements | Physical Parameters | Discovery Circumstances | Close-Approach Data ]
ABOUT SSD CREDITS/AWARDS PRIVACY/COPYRIGHT GLOSSARY LINKS
FirstGov 2013-May-20 20:42 UT
(server date/time)  
NASA Home Page
Site Manager:   Donald K. Yeomans
Webmaster  Alan B. Chamberlin